NODES 2

Last updated on Sept. 20, 2017, 12:15 a.m. UTC

1 41477U 98067HX  17262.38431888  .17021661  12538-4  46079-3 0  9990
2 41477  51.6074 225.8859 0003017 249.6794 110.5489 16.45625800 77086

Satellite is not in orbit.